Location: Bothwell
(42.3833°S, 147.0000°E)
Time: 22:26:30
(UTC+11:00)

CUTE-I - Pass Details

Date: 26 September 2022
Orbit: 810 x 823 km, 98.7° (Epoch: 30 November)

Event Time Altitude Azimuth Distance (km) Brightness Sun altitude
Rises 04:29:44 0° 50° (NE) 3,332 ? -16.4°
Reaches altitude 10° 04:32:24 10° 62° (ENE) 2,410 ? -15.9°
Maximum altitude 04:36:42 26° 116° (ESE) 1,591 ? -15.1°
Drops below altitude 10° 04:41:03 10° 170° (S) 2,439 ? -14.3°
Sets 04:43:46 0° 182° (S) 3,381 ? -13.9°
